METAR Formatted Surface Weather Observation
Issued by NWS Pago Pago

Current Version | Previous Version | Text Only | Print | Product List | Glossary On
Versions: 1 2 3 4 5 6 7 8 9 10 11 12 13 14 15 16 17 18 19 20 21 22 23 24 25 26 27 28 29 30 31 32 33 34 35 36 37 38 39 40 41 42 43 44 45 46 47 48 49 50
000
SAZS31 NSTU 061155
MTRPPG
METAR NSTU 061152Z 16010KT 10SM FEW022 BKN100 26/23 A2992 RMK SLP134
60001 70015 8/170 T02640229 10267 20263 57002=


USA.gov is the U.S. government's official web portal to all federal, state and local government web resources and services.